Home   Weather   Tullamore   Past weeks
Flag for Ireland

Past Weather in Tullamore, Ireland — Yesterday and Last 2 Weeks

Now
52 °F

Cool.


Feels Like: 52 °F
Forecast: 63 / 45 °F
Wind: 1 mph from West

Location: Mullingar

Current Time: Aug 19, 2019 at 2:50:13 am

Latest Report: Aug 19, 2019 at 1:00 am


Visibility: 9 mi

Pressure: 29.75 "Hg

Humidity: 94%

Dew Point: 50 °F

Location of TullamoreLocation

Past Weather in Tullamore — Graph

°F

Tullamore Temperature Yesterday

Maximum temperature yesterday: 65 °F (at 5:00 pm)
Minimum temperature yesterday: 52 °F (at 2:00 am)
Average temperature yesterday: 56 °F

High & Low Weather Summary for the Past Weeks

 TemperatureHumidityPressure
High72 °F (Aug 4, 2:00 pm)99% (Aug 4, 5:00 am)30.05 "Hg (Aug 4, 5:00 am)
Low41 °F (Aug 13, 6:00 am)57% (Aug 18, 5:00 pm)29.03 "Hg (Aug 9, 5:00 pm)
Average59 °F85%29.65 "Hg
* Reported Aug 4 1:00 am — Aug 19 1:00 am, Tullamore. Weather by CustomWeather, © 2019

Note: Actual official high and low records may vary slightly from our data, if they occured in-between our weather recording intervals... More about our weather records

Advertising

Tullamore Weather History for the Previous 24 Hours

Scroll right to see more
 ConditionsComfort  
Time TempWeatherWind HumidityBarometerVisibility
1:00 am
Mon, Aug 19
52 °FCool.1 mph94%29.75 "Hg9 mi
12:00 am53 °FCool.2 mph92%29.73 "Hg11 mi
11:00 pm
Sun, Aug 18
53 °FCool.2 mph91%29.71 "Hg12 mi
10:00 pm54 °FCool.1 mph92%29.68 "Hg22 mi
9:00 pm55 °FCool.2 mph92%29.66 "Hg28 mi
8:00 pm57 °FCool.2 mph91%29.63 "Hg12 mi
7:00 pm57 °FCool.2 mph87%29.60 "Hg28 mi
6:00 pm62 °FCool.3 mph69%29.58 "Hg22 mi
5:00 pm65 °FMild.5 mph57%29.55 "Hg19 mi
4:00 pm63 °FMild.3 mph71%29.54 "Hg22 mi
3:00 pm58 °FCool.2 mph90%29.54 "Hg15 mi
2:00 pm62 °FLight rain. Cloudy.3 mph73%29.50 "Hg19 mi
1:00 pm62 °FCool.6 mph75%29.47 "Hg19 mi
12:00 pm62 °FCool.5 mph79%29.47 "Hg18 mi
11:00 am57 °FCool.5 mph91%29.47 "Hg9 mi
10:00 am56 °FCool.5 mph86%29.44 "Hg9 mi
9:00 am56 °FCool.7 mph82%29.44 "Hg7 mi
8:00 am54 °FCool.5 mph89%29.44 "Hg9 mi
7:00 am53 °FCool.5 mph92%29.44 "Hg10 mi
6:00 am53 °FCool.5 mph91%29.41 "Hg11 mi
5:00 am53 °FCool.6 mph91%29.41 "Hg11 mi
4:00 am53 °FCool.6 mph89%29.44 "Hg11 mi
3:00 am53 °FCool.6 mph90%29.44 "Hg11 mi
2:00 am52 °FCool.6 mph91%29.44 "Hg11 mi
Weather by CustomWeather, © 2019

See weather overview